Location: Automata Internet Observatory
(34.5060°N, 117.9090°W)
Time: 02:13:25
(UTC-07:00)

Envisat - Visible Passes

Search period start: 21 May 2018 00:00
Search period end: 31 May 2018 00:00
Orbit: 764 x 766 km, 98.2° (Epoch: 20 May)

Date Brightness Start Highest point End Pass type
(mag) Time Alt. Az. Time Alt. Az. Time Alt. Az.
22 May 5.3 21:15:44 10° SW 21:19:35 22° W 21:23:27 10° NW visible
23 May 3.8 20:37:46 10° S 20:42:42 52° W 20:47:39 10° NNW visible
24 May 5.8 21:43:51 10° WSW 21:45:23 11° W 21:46:55 10° WNW visible
25 May 4.9 21:04:03 10° SSW 21:08:22 28° W 21:12:42 10° NW visible
26 May 3.4 20:26:30 10° S 20:31:31 68° WSW 20:36:35 10° NNW visible
27 May 5.6 21:31:16 10° SW 21:34:07 15° W 21:37:00 10° WNW visible
28 May 4.5 20:52:32 10° SSW 20:57:09 36° W 21:01:49 10° NNW visible
30 May 5.4 21:19:16 10° SW 21:22:53 20° W 21:26:31 10° NW visible
